Content
SEND FEEDBACK

Daily
Averages
Monthly
Summary
United States of America

MINBURN, IOWA


Home > North America > United States > Iowa
Elevation: 1014 feet     Latitude: 41 49N     Longitude: 094 09W

WEATHER
 
SELECT A DAY
Number of Records: 145,091;   Date Range: 1/7/08 - 7/11/14
 
SHARE

PRINT THIS DATA

[ ← Previous Day ]
WEATHER ALMANAC - JANUARY 31, 2013
[ Next Day → ]
[ °C ]   °F
Weather ElementAverageHighLow
Temperature4.5 °F11.1 °F (12:35 am)-1.8 °F (11:55 pm)
Dewpoint-2.8 °F5.9 °F (12:35 am)-8.7 °F (11:15 pm)
Humidity72 %83 % (1:15 am)65 % (3:35 pm)
Barometer30.13 in30.36 in (10:15 pm)29.88 in (12:35 am)
Wind Speed16.7 mph23 mph (1:55 pm)
Wind Gust32.2 mph (2:15 pm)
Weather ElementAverage
Visibility9.4 mi
Wind DirectionWNW (305.4 °)

Weather ElementTotal
Precipitation---
Heating Degree Days60.4 (Base 65)
Averaged from 71 records on January 31, 2013
WEATHER CONDITIONS BREAKOUT
WIND DIRECTION BREAKOUT
WEATHER BY HOUR - JANUARY 31, 2013
[ °C ]   °F
Local TimeTemperatureDewpointHumidityBarometerVisibilityWind DirectionWind SpeedGust SpeedPrecipitationEventsConditions
12:35 AM11.1 °F5.9 °F80 %29.88 in10.0 miWNW (300°)12.7 mphClear
12:55 AM10.4 °F5.9 °F82 %29.88 in10.0 miWNW (290°)11.5 mphClear
1:15 AM10.2 °F5.9 °F83 %29.88 in10.0 miWNW (300°)12.7 mphClear
1:35 AM10.0 °F5.0 °F80 %29.88 in10.0 miWNW (300°)15.0 mphClear
1:55 AM9.3 °F4.8 °F82 %29.89 in10.0 miWNW (300°)12.7 mph18.4 mphClear
2:15 AM8.8 °F4.6 °F83 %29.89 in10.0 miWest (280°)13.8 mphScattered Clouds
2:35 AM8.6 °F3.9 °F81 %29.90 in10.0 miWNW (290°)16.1 mphScattered Clouds
2:55 AM8.2 °F2.8 °F79 %29.90 in10.0 miWNW (290°)13.8 mph19.6 mphClear
3:15 AM7.7 °F2.8 °F81 %29.90 in10.0 miWNW (290°)13.8 mphClear
3:35 AM7.5 °F3.0 °F82 %29.91 in10.0 miWNW (300°)16.1 mphClear
3:55 AM6.8 °F0.3 °F75 %29.90 in10.0 miWNW (300°)18.4 mph21.9 mphClear
4:15 AM6.3 °F-0.6 °F73 %29.92 in10.0 miWNW (300°)20.7 mph25.3 mphClear
4:35 AM5.7 °F-0.6 °F75 %29.92 in10.0 miWNW (300°)15.0 mph23.0 mphClear
4:55 AM5.4 °F-0.4 °F77 %29.93 in10.0 miWNW (300°)12.7 mph20.7 mphClear
5:15 AM5.0 °F-1.3 °F75 %29.94 in10.0 miWNW (300°)16.1 mph23.0 mphClear
5:35 AM4.8 °F-1.8 °F74 %29.95 in10.0 miWNW (300°)15.0 mphClear
5:55 AM4.5 °F-2.9 °F72 %29.96 in10.0 miWNW (300°)17.3 mph24.2 mphClear
6:15 AM4.1 °F-3.6 °F70 %29.96 in10.0 miNW (310°)16.1 mphMostly Cloudy
6:35 AM4.1 °F-3.1 °F72 %29.97 in10.0 miNW (310°)16.1 mphOvercast
6:55 AM3.4 °F-3.8 °F72 %29.98 in10.0 miNW (310°)13.8 mph24.2 mphScattered Clouds
7:15 AM3.6 °F-3.8 °F71 %29.98 in10.0 miNW (310°)16.1 mphMostly Cloudy
7:35 AM3.4 °F-3.5 °F73 %30.00 in10.0 miNW (310°)15.0 mphOvercast
7:55 AM3.7 °F-3.3 °F73 %30.01 in10.0 miNW (320°)18.4 mphOvercast
8:15 AM3.9 °F-3.3 °F72 %30.02 in10.0 miNW (320°)20.7 mph24.2 mphMostly Cloudy
8:35 AM3.9 °F-3.5 °F71 %30.04 in10.0 miNW (320°)20.7 mph25.3 mphMostly Cloudy
8:55 AM4.3 °F-2.7 °F73 %30.04 in10.0 miNW (310°)15.0 mphMostly Cloudy
9:15 AM4.6 °F-2.9 °F71 %30.05 in10.0 miNW (310°)15.0 mphOvercast
9:35 AM4.5 °F-2.9 °F72 %30.06 in10.0 miNW (310°)17.3 mph23.0 mphMostly Cloudy
9:55 AM4.6 °F-2.6 °F72 %30.08 in10.0 miNW (320°)16.1 mph26.5 mphScattered Clouds
10:15 AM4.6 °F-2.9 °F71 %30.10 in10.0 miNW (320°)20.7 mph26.5 mphMostly Cloudy
10:35 AM4.6 °F-3.1 °F70 %30.11 in10.0 miNW (320°)20.7 mph28.8 mphMostly Cloudy
10:55 AM5.0 °F-2.6 °F71 %30.13 in10.0 miNW (310°)18.4 mph26.5 mphOvercast
11:15 AM5.7 °F-2.2 °F70 %30.15 in10.0 miNW (320°)19.6 mph25.3 mphOvercast
11:35 AM5.9 °F-1.5 °F72 %30.15 in7.0 miNW (310°)18.4 mph26.5 mphOvercast
11:55 AM5.9 °F-1.5 °F72 %30.15 in5.0 miNW (310°)19.6 mph25.3 mphHaze
12:15 PM6.1 °F-1.8 °F70 %30.15 in7.0 miNW (310°)18.4 mph24.2 mphOvercast
12:35 PM6.4 °F-1.7 °F69 %30.16 in5.0 miNW (310°)18.4 mph26.5 mphHaze
12:55 PM5.9 °F-1.7 °F71 %30.16 in5.0 miWNW (300°)19.6 mph25.3 mphHaze
1:15 PM6.4 °F-1.5 °F70 %30.16 in5.0 miNW (310°)20.7 mph29.9 mphHaze
1:35 PM6.8 °F-1.8 °F68 %30.17 in7.0 miNW (310°)19.6 mph28.8 mphOvercast
1:55 PM6.8 °F-1.8 °F68 %30.17 in7.0 miWNW (300°)23.0 mph28.8 mphOvercast
2:15 PM6.3 °F-1.7 °F70 %30.18 in5.0 miNW (310°)20.7 mph32.2 mphHaze
2:35 PM5.7 °F-3.1 °F67 %30.19 in5.0 miWNW (300°)21.9 mph29.9 mphHaze
2:55 PM5.4 °F-3.1 °F68 %30.20 in7.0 miNW (310°)20.7 mph31.1 mphOvercast
3:15 PM5.5 °F-3.5 °F66 %30.21 in10.0 miNW (310°)23.0 mph28.8 mphOvercast
3:35 PM5.4 °F-4.0 °F65 %30.21 in10.0 miNW (310°)20.7 mph29.9 mphMostly Cloudy
3:55 PM5.5 °F-3.8 °F65 %30.22 in10.0 miNW (310°)20.7 mphMostly Cloudy
4:15 PM5.4 °F-3.5 °F67 %30.23 in10.0 miNW (310°)18.4 mph29.9 mphOvercast
4:35 PM5.4 °F-3.6 °F66 %30.24 in10.0 miNW (310°)19.6 mph24.2 mphMostly Cloudy
4:55 PM5.0 °F-4.4 °F65 %30.24 in10.0 miNW (310°)17.3 mph24.2 mphMostly Cloudy
5:15 PM4.6 °F-4.2 °F67 %30.25 in10.0 miNW (310°)15.0 mphClear
5:35 PM4.1 °F-4.4 °F68 %30.26 in10.0 miNW (310°)16.1 mphClear
5:55 PM3.7 °F-4.5 °F69 %30.27 in10.0 miWNW (300°)16.1 mph20.7 mphScattered Clouds
6:15 PM3.6 °F-4.9 °F68 %30.28 in10.0 miWNW (300°)16.1 mph20.7 mphClear
6:35 PM3.2 °F-4.9 °F69 %30.28 in10.0 miWNW (300°)13.8 mphClear
6:55 PM2.8 °F-5.4 °F68 %30.29 in10.0 miNW (310°)13.8 mph20.7 mphClear
7:15 PM2.3 °F-5.6 °F70 %30.30 in10.0 miWNW (300°)16.1 mph23.0 mphClear
7:35 PM2.1 °F-5.8 °F69 %30.30 in10.0 miWNW (300°)12.7 mph24.2 mphClear
7:55 PM1.8 °F-6.0 °F70 %30.31 in10.0 miWNW (300°)16.1 mph24.2 mphClear
8:15 PM1.4 °F-6.2 °F71 %30.32 in10.0 miWNW (300°)17.3 mph23.0 mphClear
8:35 PM1.0 °F-6.2 °F72 %30.33 in10.0 miWNW (300°)16.1 mph20.7 mphClear
8:55 PM0.5 °F-6.7 °F72 %30.33 in10.0 miNW (310°)17.3 mph24.2 mphClear
9:15 PM0.3 °F-7.1 °F71 %30.33 in10.0 miWNW (300°)12.7 mphClear
9:35 PM0.0 °F-7.4 °F71 %30.35 in10.0 miWNW (300°)16.1 mph24.2 mphClear
9:55 PM-0.6 °F-8.3 °F70 %30.35 in10.0 miWNW (300°)19.6 mph25.3 mphClear
10:15 PM-0.8 °F-8.5 °F70 %30.36 in10.0 miWNW (300°)15.0 mphClear
10:35 PM-1.3 °F-8.5 °F72 %30.36 in10.0 miWNW (300°)11.5 mph18.4 mphClear
10:55 PM-1.3 °F-8.5 °F72 %30.36 in10.0 miWNW (300°)13.8 mph18.4 mphClear
11:15 PM-1.3 °F-8.7 °F71 %30.36 in10.0 miNW (310°)15.0 mph20.7 mphClear
11:35 PM-1.7 °F-8.7 °F72 %30.36 in10.0 miNW (310°)9.2 mphClear
11:55 PM-1.8 °F-8.7 °F73 %30.36 in10.0 miNW (310°)10.4 mph17.3 mphClear
Hourly data recorded from KPRO, located miles away from Minburn, Iowa







STORIES FROM OUR PARTNERS